Location: Casteau
(50.5142°N, 4.0161°E)
Time: 05:54:06
(UTC+00:00)

Ariane Rocket - Pass Details

Date: 18 September 2020
Orbit: 761 x 769 km, 98.7° (Epoch: 22 October)

Event Time Altitude Azimuth Distance (km) Brightness Sun altitude
Exits shadow 19:49:59 - 183° (S) 2,609 5.5 -19.1°
Reaches altitude 10° 19:50:48 10° 185° (S) 2,294 5.2 -19.2°
Maximum altitude 19:55:41 49° 260° (W) 988 3.8 -19.9°
Drops below altitude 10° 20:00:38 10° 335° (NNW) 2,316 6.2 -20.6°
Sets 20:03:02 0° 341° (NNW) 3,248 7.0 -20.9°
